Jacksonville, IL

2:34 PM CDT on June 25, 2017 (GMT -0500)
Jacksonville Municipal

Weather History for KIJX - March, 2014

Change the Weather History Date:

Wednesday, March 19, 2014

  Actual Average (KSPI) Record (KSPI)
Temperature  
Mean Temperature 40 °F -  
Max Temperature 50 °F 50 °F 81 °F (2012)
Min Temperature 29 °F 34 °F 2 °F (1923)
Degree Days  
Heating Degree Days 26    
Moisture  
Dew Point 35 °F    
Average Humidity 80    
Maximum Humidity 92    
Minimum Humidity 66    
Precipitation  
Precipitation 0.04 in - - ()
Sea Level Pressure  
Sea Level Pressure 29.87 in    
Wind  
Wind Speed 14 mph (WSW)    
Max Wind Speed 25 mph    
Max Gust Speed 33 mph    
Visibility 9 miles    
Events Rain    
Averages and records for this station are not official NWS values.
T = Trace of Precipitation, MM = Missing Value Source: NWS Daily Summary

Daily Weather History Graph

Daily Weather History Graph

Search for Another Location

Airport or City:

Trip Planner

Search our weather history database for the weather conditions in past years. The results will help you decide how hot, cold, wet, or windy it might be!

Date:

Astronomy

Mar. 19, 2014 Rise Set
Actual Time 7:05 AM CDT 7:12 PM CDT
Civil Twilight 6:39 AM CDT 7:38 PM CDT
Nautical Twilight 6:07 AM CDT 8:10 PM CDT
Astronomical Twilight 5:35 AM CDT 8:42 PM CDT
Moon 10:30 PM CDT (3/19) 8:32 AM CDT (3/19)
Length of Visible Light 12h 59m
Length of Day
12h 06m
Waning Gibbous, 91% of the Moon is Illuminated
Mar 19
Waning Gibbous
Mar 23
Last Quarter
Mar 30
New
Apr 7
First Quarter
Apr 15
Full

Hourly Weather History & Observations

Time (CDT) Temp. Windchill Dew Point Humidity Pressure Visibility Wind Dir Wind Speed Gust Speed Precip Events Conditions
12:15 AM 50.5 °F - 41.9 °F 72% 29.62 in 10.0 mi South 16.1 mph 23.0 mph N/A   Scattered Clouds
12:35 AM 50.0 °F - 41.7 °F 73% 29.62 in 10.0 mi South 12.7 mph - N/A   Clear
12:55 AM 50.0 °F - 41.9 °F 74% 29.63 in 10.0 mi South 15.0 mph 23.0 mph N/A   Mostly Cloudy
1:15 AM 49.3 °F - 42.4 °F 77% 29.62 in 10.0 mi South 17.3 mph 21.9 mph N/A Rain Light Rain
1:35 AM 49.3 °F - 42.6 °F 78% 29.62 in 10.0 mi South 16.1 mph 23.0 mph N/A Rain Light Rain
1:55 AM 47.7 °F - 43.9 °F 87% 29.62 in 7.0 mi SSW 13.8 mph - 0.02 in Rain Light Rain
2:15 AM 47.3 °F - 44.8 °F 91% 29.61 in 7.0 mi South 9.2 mph - 0.02 in Rain Light Rain
2:35 AM 46.6 °F - 44.2 °F 92% 29.60 in 10.0 mi South 8.1 mph - 0.02 in   Scattered Clouds
2:55 AM 45.9 °F 42.3 °F 43.7 °F 92% 29.58 in 10.0 mi South 6.9 mph - 0.02 in   Scattered Clouds
3:15 AM 45.7 °F 41.5 °F 43.0 °F 90% 29.59 in 10.0 mi SSE 8.1 mph - N/A   Scattered Clouds
3:35 AM 45.5 °F 41.3 °F 42.8 °F 90% 29.58 in 10.0 mi South 8.1 mph - N/A   Clear
3:55 AM 45.1 °F 40.8 °F 42.3 °F 90% 29.58 in 10.0 mi South 8.1 mph - N/A   Clear
4:15 AM 45.0 °F 39.3 °F 42.1 °F 90% 29.58 in 10.0 mi South 11.5 mph 17.3 mph N/A   Clear
4:35 AM 45.3 °F 39.7 °F 41.9 °F 88% 29.59 in 10.0 mi South 11.5 mph - N/A   Clear
4:55 AM 45.5 °F 39.9 °F 41.9 °F 87% 29.60 in 10.0 mi South 11.5 mph 17.3 mph N/A   Clear
5:15 AM 45.9 °F 40.0 °F 41.9 °F 86% 29.61 in 10.0 mi SSW 12.7 mph - N/A   Clear
5:35 AM 45.1 °F 39.9 °F 41.2 °F 86% 29.62 in 10.0 mi SSW 10.4 mph - N/A   Clear
5:55 AM 45.0 °F 39.7 °F 41.0 °F 86% 29.63 in 10.0 mi SW 10.4 mph - N/A   Scattered Clouds
6:15 AM 46.4 °F 41.1 °F 41.2 °F 82% 29.64 in 10.0 mi WSW 11.5 mph - N/A   Mostly Cloudy
6:35 AM 45.9 °F 40.4 °F 41.0 °F 83% 29.66 in 10.0 mi WSW 11.5 mph - N/A   Mostly Cloudy
6:55 AM 45.9 °F 39.4 °F 40.6 °F 82% 29.67 in 10.0 mi West 15.0 mph 19.6 mph N/A   Scattered Clouds
7:15 AM 44.8 °F 39.0 °F 40.1 °F 84% 29.69 in 10.0 mi West 11.5 mph - N/A   Clear
7:35 AM 44.2 °F 37.0 °F 40.8 °F 88% 29.70 in 10.0 mi West 16.1 mph 21.9 mph N/A   Scattered Clouds
7:55 AM 44.8 °F 36.6 °F 41.0 °F 87% 29.73 in 7.0 mi West 20.7 mph 27.6 mph N/A   Mostly Cloudy
8:15 AM 43.7 °F 34.7 °F 40.1 °F 87% 29.75 in 4.0 mi West 23.0 mph 28.8 mph N/A   Mostly Cloudy
8:35 AM 43.5 °F 35.0 °F 39.6 °F 86% 29.76 in 4.0 mi West 20.7 mph 27.6 mph N/A   Mostly Cloudy
8:55 AM 43.2 °F 35.3 °F 39.4 °F 86% 29.78 in 4.0 mi WNW 17.3 mph 24.2 mph N/A   Overcast
9:15 AM 42.8 °F 34.0 °F 39.2 °F 87% 29.80 in 4.0 mi West 20.7 mph 29.9 mph N/A   Overcast
9:35 AM 42.1 °F 32.1 °F 38.3 °F 86% 29.81 in 4.0 mi WNW 25.3 mph 33.4 mph N/A   Mostly Cloudy
9:55 AM 41.0 °F 31.4 °F 36.5 °F 84% 29.83 in 5.0 mi WNW 21.9 mph 28.8 mph N/A   Mostly Cloudy
10:15 AM 40.3 °F 31.0 °F 36.5 °F 86% 29.85 in 5.0 mi West 19.6 mph 27.6 mph N/A   Mostly Cloudy
10:35 AM 39.6 °F 29.0 °F 35.6 °F 86% 29.86 in 4.0 mi West 24.2 mph 31.1 mph N/A   Scattered Clouds
10:55 AM 39.7 °F 30.3 °F 35.4 °F 85% 29.88 in 4.0 mi West 19.6 mph 28.8 mph N/A   Haze
11:15 AM 40.5 °F 31.2 °F 35.6 °F 83% 29.88 in 4.0 mi West 19.6 mph 25.3 mph N/A   Scattered Clouds
11:35 AM 40.6 °F 31.2 °F 35.2 °F 81% 29.90 in 5.0 mi West 20.7 mph 26.5 mph N/A   Haze
11:55 AM 41.2 °F 31.4 °F 35.4 °F 80% 29.92 in 5.0 mi West 23.0 mph 27.6 mph N/A   Haze
12:15 PM 40.5 °F 30.4 °F 34.2 °F 78% 29.93 in 7.0 mi West 23.0 mph 32.2 mph N/A   Mostly Cloudy
12:35 PM 41.2 °F 32.4 °F 34.2 °F 76% 29.94 in 7.0 mi WNW 18.4 mph 28.8 mph N/A   Scattered Clouds
12:55 PM 40.5 °F 31.2 °F 33.6 °F 77% 29.95 in 7.0 mi WNW 19.6 mph 31.1 mph N/A   Mostly Cloudy
1:15 PM 41.4 °F 32.1 °F 34.3 °F 76% 29.96 in 10.0 mi WNW 20.7 mph 25.3 mph N/A   Mostly Cloudy
1:35 PM 41.0 °F 30.9 °F 33.3 °F 74% 29.96 in 10.0 mi West 24.2 mph 32.2 mph N/A   Overcast
1:55 PM 41.4 °F 31.4 °F 33.4 °F 73% 29.97 in 10.0 mi West 24.2 mph 31.1 mph N/A   Mostly Cloudy
2:15 PM 41.5 °F 32.4 °F 32.5 °F 70% 29.98 in 10.0 mi West 20.7 mph 29.9 mph N/A   Mostly Cloudy
2:35 PM 41.9 °F 32.1 °F 32.2 °F 68% 29.98 in 10.0 mi WNW 24.2 mph 31.1 mph N/A   Scattered Clouds
2:55 PM 41.9 °F 33.1 °F 32.2 °F 68% 29.99 in 10.0 mi West 19.6 mph 26.5 mph N/A   Mostly Cloudy
3:15 PM 42.4 °F 33.1 °F 32.0 °F 67% 30.00 in 10.0 mi WNW 23.0 mph 33.4 mph N/A   Mostly Cloudy
3:35 PM 42.1 °F 32.3 °F 31.8 °F 67% 30.01 in 10.0 mi West 24.2 mph 28.8 mph N/A   Mostly Cloudy
3:55 PM 41.4 °F 31.6 °F 31.3 °F 67% 30.02 in 10.0 mi West 23.0 mph 29.9 mph N/A   Overcast
4:15 PM 40.6 °F 31.2 °F 30.7 °F 68% 30.02 in 10.0 mi WNW 20.7 mph 27.6 mph N/A   Overcast
4:35 PM 40.1 °F 30.7 °F 29.5 °F 66% 30.04 in 10.0 mi WNW 19.6 mph 29.9 mph N/A   Overcast
4:55 PM 40.1 °F 30.5 °F 29.8 °F 67% 30.04 in 10.0 mi WNW 20.7 mph 24.2 mph N/A   Overcast
5:15 PM 40.5 °F 32.1 °F 30.4 °F 67% 30.05 in 10.0 mi WNW 16.1 mph 24.2 mph N/A   Overcast
5:35 PM 40.1 °F 31.0 °F 29.8 °F 67% 30.06 in 10.0 mi West 18.4 mph 24.2 mph N/A   Overcast
5:55 PM 40.1 °F 31.6 °F 30.0 °F 67% 30.06 in 10.0 mi West 16.1 mph 20.7 mph N/A   Overcast
6:15 PM 40.1 °F 32.7 °F 29.7 °F 66% 30.07 in 10.0 mi West 12.7 mph - N/A   Mostly Cloudy
6:35 PM 39.7 °F 33.7 °F 30.2 °F 69% 30.07 in 10.0 mi West 9.2 mph - N/A   Mostly Cloudy
6:55 PM 39.2 °F 34.2 °F 29.8 °F 69% 30.08 in 10.0 mi WNW 6.9 mph - N/A   Mostly Cloudy
7:15 PM 38.1 °F 32.9 °F 29.3 °F 71% 30.08 in 10.0 mi WNW 6.9 mph - N/A   Scattered Clouds
7:35 PM 37.6 °F 31.6 °F 29.3 °F 72% 30.09 in 10.0 mi WNW 8.1 mph - N/A   Scattered Clouds
7:55 PM 37.9 °F 30.9 °F 29.1 °F 71% 30.10 in 10.0 mi WNW 10.4 mph 16.1 mph N/A   Clear
8:15 PM 36.5 °F 29.2 °F 28.9 °F 74% 30.10 in 10.0 mi NW 10.4 mph - N/A   Clear
8:35 PM 35.6 °F 29.9 °F 28.4 °F 75% 30.11 in 10.0 mi NW 6.9 mph - N/A   Clear
8:55 PM 33.6 °F 28.4 °F 27.9 °F 79% 30.11 in 10.0 mi NW 5.8 mph - N/A   Clear
9:15 PM 32.7 °F 28.3 °F 27.1 °F 80% 30.12 in 10.0 mi WNW 4.6 mph - N/A   Clear
9:35 PM 32.0 °F 26.4 °F 27.3 °F 83% 30.13 in 10.0 mi WNW 5.8 mph - N/A   Clear
9:55 PM 32.0 °F 26.4 °F 27.1 °F 82% 30.13 in 10.0 mi West 5.8 mph - N/A   Clear
10:15 PM 32.9 °F 29.8 °F 27.5 °F 81% 30.13 in 10.0 mi West 3.5 mph - N/A   Clear
10:35 PM 32.0 °F 27.5 °F 27.3 °F 83% 30.13 in 10.0 mi SW 4.6 mph - N/A   Clear
10:55 PM 30.9 °F 27.5 °F 27.3 °F 86% 30.13 in 10.0 mi SW 3.5 mph - N/A   Clear
11:15 PM 29.7 °F 26.1 °F 27.0 °F 90% 30.13 in 10.0 mi SSW 3.5 mph - N/A   Clear
11:35 PM 29.8 °F 24.9 °F 27.3 °F 90% 30.13 in 10.0 mi SSW 4.6 mph - N/A   Clear
11:55 PM 30.7 °F 26.0 °F 27.9 °F 89% 30.13 in 10.0 mi SSW 4.6 mph - N/A   Clear